Flag for U.S.A. Weather past 2 weeks in Madison, Wisconsin, U.S.A.

Now
46 °F

Passing clouds.


Feels Like: 39 °F
Forecast: 37 / 51 °F
Wind: 16 mph from Southeast

Location: Dane County Regional-Truax Field


UV Index: 0 (Low)

Visibility: 10 mi


Pressure: 30.08 "Hg

Humidity: 50%

Dew point: 28 °F

Location of MadisonLocation

Historic Weather in Madison

°F

Madison temperature yesterday

Maximum temperature yesterday: 36 °F (at 4:53 PM)
Minimum temperature yesterday: 19 °F (at 4:53 AM)
Average temperature yesterday: 28 °F

Past Weeks' High & Low Weather Summary

 TemperatureHumidityPressure
High67 °F (Apr 11, 4:53 PM)97% (Apr 4, 7:53 AM)30.24 "Hg (Apr 4, 7:53 AM)
Low19 °F (Apr 15, 4:53 AM)15% (Apr 10, 3:53 PM)29.48 "Hg (Apr 4, 6:53 AM)
Average43 °F62%29.91 "Hg
* Reported Apr 1 9:53 PM — Apr 16 9:53 PM, Madison, Weather by CustomWeather, © 2014

Note: Actual official high and low records may vary slightly from our data, if they occured in-between our weather recording intervals... More about our weather records

Advertising

Historic Weather Conditions — Data for Previous 24 hours

 ConditionsComfort  
Time TempWeatherWind HumidityBarometerVisibility
9:53 PM
Apr 16
47 °FPassing clouds.17 mph48%30.08 "Hg10 mi
8:53 PM47 °FPassing clouds.16 mph50%30.09 "Hg10 mi
7:53 PM49 °FBroken clouds.17 mph46%30.04 "Hg10 mi
6:53 PM49 °FMore clouds than sun.16 mph48%30.04 "Hg10 mi
5:53 PM50 °FMostly cloudy.22 mph46%30.06 "Hg10 mi
4:53 PM51 °FOvercast.28 mph44%30.06 "Hg10 mi
3:53 PM51 °FMore clouds than sun.30 mph44%30.08 "Hg10 mi
2:53 PM51 °FMore clouds than sun.28 mph42%30.10 "Hg10 mi
1:53 PM49 °FBroken clouds.30 mph46%30.12 "Hg10 mi
12:53 PM47 °FBroken clouds.26 mph44%30.15 "Hg10 mi
11:53 AM46 °FScattered clouds.25 mph46%30.17 "Hg10 mi
10:53 AM43 °FPartly sunny.23 mph49%30.20 "Hg10 mi
9:53 AM38 °FMostly cloudy.21 mph58%30.22 "Hg10 mi
8:53 AM36 °FOvercast.15 mph59%30.24 "Hg10 mi
7:53 AM34 °FOvercast.13 mph61%30.24 "Hg10 mi
6:53 AM31 °FPassing clouds.7 mph69%30.24 "Hg10 mi
5:53 AM28 °FPassing clouds.5 mph75%30.24 "Hg10 mi
4:53 AM29 °FPassing clouds.7 mph72%30.21 "Hg10 mi
3:53 AM29 °FOvercast.8 mph69%30.20 "Hg10 mi
2:53 AM29 °FOvercast.7 mph69%30.21 "Hg10 mi
1:53 AM29 °FOvercast.8 mph66%30.21 "Hg10 mi
12:53 AM29 °FClear.No wind61%30.22 "Hg10 mi
11:53 PM
Apr 15
27 °FPassing clouds.No wind69%30.21 "Hg10 mi
Weather by CustomWeather, © 2014

See weather overview